Location: Düngen
(52.0952°N, 10.0219°E)
Time: 18:16:46
(UTC+00:00)

COSMO-SKYMED 1 - Pass Details

Date: 11 March 2026
Orbit: 576 x 577 km, 97.9° (Epoch: 20 April)

Event Time Altitude Azimuth Distance (km) Brightness Sun altitude
Rises 18:10:55 0° 13° (NNE) 2,809 5.9 -9.1°
Reaches altitude 10° 18:13:05 10° 12° (NNE) 1,904 5.0 -9.4°
Maximum altitude 18:17:12 78° 287° (WNW) 598 2.6 -10.0°
Drops below altitude 10° 18:21:18 10° 201° (SSW) 1,887 5.2 -10.6°
Sets 18:23:26 0° 200° (SSW) 2,781 6.1 -11.0°
